Weather History for KDAY - November, 2013

Change the Weather History Date:

Saturday, November 2, 2013

  Actual Average Record
Temperature  
Mean Temperature 50 °F 48 °F  
Max Temperature 55 °F 58 °F 77 °F (1961)
Min Temperature 44 °F 39 °F 20 °F (1954)
Degree Days  
Heating Degree Days 15 17  
Month to date heating degree days 26 33  
Since 1 July heating degree days 413 480  
Cooling Degree Days 0 0  
Month to date cooling degree days 0 0  
Year to date cooling degree days 1062 891  
Moisture  
Dew Point 40 °F    
Average Humidity 70    
Maximum Humidity 89    
Minimum Humidity 50    
Precipitation  
Precipitation T in 0.11 in 2.20 in (1928)
Month to date precipitation T 0.22  
Year to date precipitation 30.35 34.76  
Snow  
Snow 0.00 in 0.00 in 6.50 in (1966)
Month to date snowfall 0.0 0.0  
Since 1 July snowfall 1.0 0.4  
Since 1 September snowfall 1.0 0.4  
Snow Depth 0.00 in    
Sea Level Pressure  
Sea Level Pressure 29.88 in    
Wind  
Wind Speed 11 mph (WNW)    
Max Wind Speed 22 mph    
Max Gust Speed 26 mph    
Visibility 10 miles    
Events Rain    
T = Trace of Precipitation, MM = Missing Value Source: NWS Daily Summary

Daily Weather History Graph

Daily Weather History Graph

Search for Another Location

Airport or City:

Trip Planner

Search our weather history database for the weather conditions in past years. The results will help you decide how hot, cold, wet, or windy it might be!

Date:

Astronomy

Nov. 02, 2013 Rise Set
Actual Time 8:07 AM EDT 6:33 PM EDT
Civil Twilight 7:39 AM EDT 7:01 PM EDT
Nautical Twilight 7:07 AM EDT 7:33 PM EDT
Astronomical Twilight 6:35 AM EDT 8:04 PM EDT
Moon 7:03 AM EDT (11/2) 6:03 PM EDT (11/2)
Length of Visible Light 11h 22m
Length of Day
10h 25m
Waning Crescent, 1% of the Moon is Illuminated
Nov 2
Waning Crescent
Nov 3
New
Nov 10
First Quarter
Nov 17
Full
Nov 25
Last Quarter

Hourly Weather History & Observations

Time (EDT) Temp. Windchill Dew Point Humidity Pressure Visibility Wind Dir Wind Speed Gust Speed Precip Events Conditions
12:56 AM 48.9 °F - 39.9 °F 71% 29.75 in 10.0 mi West 10.4 mph - N/A   Overcast
1:56 AM 48.0 °F - 39.9 °F 74% 29.75 in 10.0 mi West 9.2 mph - N/A   Overcast
2:56 AM 48.0 °F - 39.9 °F 74% 29.75 in 10.0 mi West 10.4 mph - N/A   Overcast
3:56 AM 48.0 °F - 41.0 °F 77% 29.75 in 10.0 mi West 11.5 mph - N/A   Overcast
4:49 AM 48.2 °F - 42.8 °F 82% 29.75 in 10.0 mi West 10.4 mph - N/A   Overcast
4:56 AM 48.0 °F - 42.1 °F 80% 29.76 in 10.0 mi West 10.4 mph - N/A   Overcast
5:56 AM 46.9 °F - 41.0 °F 80% 29.77 in 10.0 mi West 11.5 mph - N/A   Overcast
6:56 AM 46.0 °F 40.6 °F 39.9 °F 79% 29.79 in 10.0 mi West 11.5 mph - N/A   Overcast
7:07 AM 46.4 °F 41.9 °F 39.2 °F 76% 29.79 in 10.0 mi West 9.2 mph - N/A   Overcast
7:56 AM 46.0 °F 41.4 °F 41.0 °F 83% 29.81 in 10.0 mi West 9.2 mph - N/A   Overcast
8:56 AM 46.0 °F 41.9 °F 42.1 °F 86% 29.82 in 9.0 mi West 8.1 mph - N/A   Overcast
9:48 AM 48.2 °F - 42.8 °F 82% 29.83 in 9.0 mi WNW 11.5 mph - N/A   Mostly Cloudy
9:56 AM 48.0 °F - 42.1 °F 80% 29.84 in 9.0 mi West 9.2 mph - N/A   Mostly Cloudy
10:35 AM 48.2 °F - 39.2 °F 71% 29.85 in 9.0 mi West 12.7 mph - N/A   Mostly Cloudy
10:56 AM 48.0 °F - 41.0 °F 77% 29.86 in 8.0 mi WNW 11.5 mph - N/A   Overcast
11:56 AM 50.0 °F - 39.0 °F 66% 29.87 in 10.0 mi West 10.4 mph - N/A   Mostly Cloudy
12:56 PM 51.1 °F - 39.0 °F 63% 29.88 in 10.0 mi West 10.4 mph - N/A   Scattered Clouds
1:56 PM 54.0 °F - 36.0 °F 51% 29.88 in 10.0 mi West 15.0 mph 24.2 mph N/A   Mostly Cloudy
2:56 PM 52.0 °F - 37.0 °F 57% 29.89 in 10.0 mi West 18.4 mph - N/A   Mostly Cloudy
3:56 PM 53.1 °F - 37.0 °F 55% 29.90 in 10.0 mi WNW 16.1 mph - N/A   Mostly Cloudy
4:56 PM 51.1 °F - 37.0 °F 59% 29.92 in 10.0 mi WNW 13.8 mph - N/A   Mostly Cloudy
5:56 PM 51.1 °F - 37.9 °F 61% 29.95 in 10.0 mi WNW 16.1 mph 20.7 mph N/A   Overcast
6:45 PM 48.2 °F - 39.2 °F 71% 29.97 in 10.0 mi West 15.0 mph - 0.00 in   Mostly Cloudy
6:56 PM 46.9 °F - 41.0 °F 80% 29.99 in 10.0 mi West 10.4 mph - 0.00 in   Mostly Cloudy
7:32 PM 46.4 °F 42.9 °F 41.0 °F 81% 29.99 in 10.0 mi NW 6.9 mph - N/A   Overcast
7:56 PM 46.9 °F - 39.0 °F 74% 30.01 in 10.0 mi WNW 12.7 mph - 0.00 in   Light Drizzle
8:56 PM 45.0 °F 40.6 °F 41.0 °F 86% 30.04 in 10.0 mi NW 8.1 mph - 0.00 in   Overcast
9:56 PM 45.0 °F 40.6 °F 41.0 °F 86% 30.06 in 10.0 mi NW 8.1 mph - N/A   Overcast
10:56 PM 44.1 °F 39.0 °F 39.9 °F 85% 30.09 in 10.0 mi NW 9.2 mph - N/A   Overcast
11:56 PM 44.1 °F 39.5 °F 41.0 °F 89% 30.10 in 10.0 mi NW 8.1 mph - N/A   Overcast